Voltar ao catálogo

FENGYUN 1C DEB

AtivoPO
NORAD 31857·DEBRIS·🇨🇳 China

Lançado May 10, 1999 de Taiyuan Satellite Launch Center

Loading…

Próximas Passagens (próximas 24 horas)

TLE

ObsoletoSource: Space-Track

Época: Aug 23, 2026, 02:05 UTC

1 31857U 99025CJX 26235.08746538  .00001005  00000-0  95958-3 0  9993
2 31857  96.1879 177.7712 0306791 296.9768  60.0358 13.62820596650792

Acompanhe FENGYUN 1C DEB em tempo real com AllMySat

Download on the App Store